Tracking 20942 objects as of 11-Jul-2020
HD Live streaming from Space Station
objects crossing your sky now

LEMUR 2 YNDRD

Track LEMUR 2 YNDRD now!
10-day predictions
LEMUR 2 YNDRD is classified as:


NORAD ID: 44413
Int'l Code: 2019-038AD
Perigee: 518.6 km
Apogee: 553.1 km
Inclination: 97.5 °
Period: 95.2 minutes
Semi major axis: 6906 km
RCS: Unknown
Launch date: July 5, 2019
Source: United States (US)
Launch site: VOSTOCHNY COSMODROME (VOSTO)
aabbcc
Your satellite tracking list
Your tracking list is empty




NASA's NSSDC Master Catalog

Two Line Element Set (TLE):
1 44413U 19038AD  20192.86420747 +.00000588 +00000-0 +37362-4 0  9995
2 44413 097.5377 153.9172 0024968 052.2877 308.0611 15.12466347056126
Source of the keplerian elements: AFSPC